FW6843 Weather Reports


time (UTC)temp
F
wind
direction
speed
knots
gust
knots
rain 1hr
in
rain 24hr
in
rain mn
in
humidity
%
barometer
mb
20260508043035 58 0 0.0 0.0 0.00 0.00 0.00 93 1016.8
20260508041536 58 0 0.0 0.0 0.00 0.00 0.00 93 1016.6
20260508040047 58 0 0.0 0.0 0.00 0.00 0.00 92 1016.5
20260508034546 58 0 0.0 0.0 0.00 0.00 0.00 92 1016.2
20260508033042 58 0 0.0 0.9 0.00 0.00 0.00 91 1016.0
20260508031538 59 0 0.0 0.9 0.00 0.00 0.00 90 1015.8
20260508030040 60 0 0.0 0.0 0.00 0.00 0.00 88 1015.4
20260508024600 61 0 0.0 0.0 0.00 0.00 0.00 86 1015.3
20260508023039 61 0 0.0 0.0 0.00 0.00 0.00 85 1015.1
20260508021538 62 0 0.0 0.9 0.00 0.00 0.00 84 1015.1
20260508020043 63 198 0.0 2.6 0.00 0.00 0.00 83 1015.1
20260508014538 64 0 0.0 2.6 0.00 0.00 0.00 81 1015.0
20260508013042 65 290 0.0 2.6 0.00 0.00 0.00 79 1015.1
20260508011538 66 283 0.9 2.6 0.00 0.00 0.00 78 1015.1
20260508010048 67 0 0.9 3.5 0.00 0.00 0.00 77 1015.0
20260508004545 68 279 0.9 2.6 0.00 0.00 0.00 76 1015.0
20260508003035 68 0 0.9 3.5 0.00 0.00 0.00 75 1015.0
20260508001546 68 0 0.9 5.2 0.00 0.00 0.00 76 1015.0
20260508000038 70 288 0.9 3.5 0.00 0.00 0.00 73 1015.0
20260507234535 70 269 0.0 3.5 0.00 0.00 0.00 73 1015.0
20260507233035 70 325 0.9 3.5 0.00 0.00 0.00 73 1015.1
20260507231536 69 0 0.9 3.5 0.00 0.00 0.00 75 1015.0
20260507230035 70 225 1.7 6.1 0.00 0.00 0.00 73 1015.3
20260507224537 71 259 1.7 5.2 0.00 0.00 0.00 71 1015.2
20260507223035 71 0 0.0 5.2 0.00 0.00 0.00 73 1015.3
20260507221540 71 316 2.6 6.1 0.00 0.00 0.00 71 1015.4
20260507220036 71 276 1.7 4.3 0.00 0.00 0.00 72 1015.6
20260507214537 71 254 1.7 5.2 0.00 0.00 0.00 73 1015.7
20260507213039 71 0 0.9 7.0 0.00 0.00 0.00 72 1016.0
20260507211536 71 355 0.9 6.1 0.00 0.00 0.00 73 1015.9
20260507210040 71 255 1.7 6.1 0.00 0.00 0.00 72 1016.1
20260507204534 71 283 1.7 6.1 0.00 0.00 0.00 72 1016.0
20260507203104 72 303 1.7 7.0 0.00 0.00 0.00 71 1016.1
20260507201538 72 256 1.7 7.0 0.00 0.00 0.00 71 1016.1
20260507200037 72 263 1.7 7.0 0.00 0.00 0.00 72 1016.2
20260507194535 72 294 1.7 6.1 0.00 0.00 0.00 72 1016.3
20260507193039 72 329 0.9 6.1 0.00 0.00 0.00 72 1016.4
20260507191542 72 299 1.7 6.1 0.00 0.00 0.00 71 1016.6
20260507190045 71 0 1.7 6.1 0.00 0.00 0.00 72 1016.8
20260507184535 71 302 1.7 7.0 0.00 0.00 0.00 72 1016.9
20260507183036 71 289 0.9 4.3 0.00 0.00 0.00 71 1017.0
20260507181535 71 296 0.9 3.5 0.00 0.00 0.00 73 1016.9
20260507180041 70 0 1.7 3.5 0.00 0.00 0.00 74 1017.0
20260507174544 69 309 0.0 3.5 0.00 0.00 0.00 75 1017.1
20260507173058 69 288 0.9 5.2 0.00 0.00 0.00 75 1017.2
20260507171541 69 0 0.9 5.2 0.00 0.00 0.00 76 1017.1
20260507170039 68 290 0.9 3.5 0.00 0.00 0.00 75 1017.2
20260507164539 67 317 0.9 3.5 0.00 0.00 0.00 76 1017.3
20260507163038 66 331 0.0 2.6 0.00 0.00 0.00 77 1017.2
20260507161546 65 0 0.0 0.0 0.00 0.00 0.00 78 1017.3
20260507160041 64 0 0.0 2.6 0.00 0.00 0.00 78 1017.2
20260507154535 63 0 0.0 0.9 0.00 0.00 0.00 82 1017.5
20260507153038 61 0 0.0 0.9 0.00 0.00 0.00 82 1017.7
20260507151537 61 0 0.0 0.0 0.00 0.00 0.00 84 1017.6
20260507150040 60 0 0.0 0.9 0.00 0.00 0.00 85 1017.5
20260507144535 59 0 0.0 0.9 0.00 0.00 0.00 84 1017.3
20260507143054 59 0 0.0 0.0 0.00 0.00 0.00 86 1017.2
20260507141549 58 0 0.0 0.0 0.00 0.00 0.00 86 1017.0
20260507140037 56 0 0.0 2.6 0.00 0.00 0.00 90 1016.7
20260507134536 55 0 0.0 0.0 0.00 0.00 0.00 91 1016.6
20260507133104 54 0 0.0 0.9 0.00 0.00 0.00 91 1016.4
20260507131538 54 0 0.0 0.0 0.00 0.00 0.00 91 1016.3
20260507130048 54 0 0.0 0.0 0.00 0.00 0.00 91 1016.5
20260507124535 54 0 0.0 0.0 0.00 0.00 0.00 91 1016.3
20260507123040 54 0 0.0 1.7 0.00 0.00 0.00 90 1016.3
20260507121537 54 0 0.0 2.6 0.00 0.00 0.00 90 1016.1
20260507120039 54 0 0.0 0.9 0.00 0.00 0.00 89 1016.3
20260507114545 54 0 0.0 0.9 0.00 0.00 0.00 90 1016.2
20260507113038 54 0 0.0 0.0 0.00 0.00 0.00 90 1016.3
20260507111535 54 0 0.0 0.0 0.00 0.00 0.00 90 1016.5
20260507110041 55 0 0.0 0.0 0.00 0.00 0.00 90 1016.6
20260507104540 55 0 0.0 0.0 0.00 0.00 0.00 90 1016.6
20260507103044 55 0 0.0 0.0 0.00 0.00 0.00 90 1016.6
20260507101538 55 0 0.0 0.0 0.00 0.00 0.00 90 1016.6
20260507100038 55 0 0.0 0.9 0.00 0.00 0.00 89 1016.5
20260507094544 55 128 0.0 0.9 0.00 0.00 0.00 89 1016.7
20260507093036 55 0 0.0 0.9 0.00 0.00 0.00 89 1016.7
20260507091538 55 0 0.0 0.9 0.00 0.00 0.00 88 1017.1
20260507090036 55 0 0.0 0.9 0.00 0.00 0.00 88 1017.3
20260507084539 55 0 0.0 0.9 0.00 0.00 0.00 88 1017.6
20260507083035 56 0 0.0 0.0 0.00 0.00 0.00 89 1017.6
20260507081539 56 0 0.0 0.0 0.00 0.00 0.00 89 1017.7
20260507080039 56 0 0.0 0.0 0.00 0.00 0.00 88 1017.8
20260507074536 56 0 0.0 0.0 0.00 0.00 0.00 88 1017.5
20260507073035 56 0 0.0 0.0 0.00 0.00 0.00 87 1017.6
20260507071538 56 0 0.0 0.0 0.00 0.00 0.00 87 1017.6
20260507070049 57 0 0.0 0.0 0.00 0.00 0.00 86 1017.7
20260507064543 57 0 0.0 0.0 0.00 0.00 0.00 86 1017.8
20260507063039 57 0 0.0 0.0 0.00 0.00 0.00 86 1017.9
20260507061538 57 0 0.0 0.0 0.00 0.00 0.00 85 1017.8
20260507060037 57 0 0.0 0.0 0.00 0.00 0.00 85 1018.0
20260507054535 58 0 0.0 0.0 0.00 0.00 0.00 84 1017.9
20260507053035 58 0 0.0 0.0 0.00 0.00 0.00 84 1017.9
20260507051535 58 0 0.0 0.0 0.00 0.00 0.00 83 1017.9
20260507050039 58 0 0.0 0.0 0.00 0.00 0.00 82 1017.9
20260507044548 58 0 0.0 0.0 0.00 0.00 0.00 82 1018.0